RH
37 37 36 34 36 37 37 33 30 30 29 28 27 26 27 25 26 23 21 19 19 17 15 15 14 14 13 12 11 10 9 8 8 7 7 7 8 7 6 7 12 14 20 35 67 40 30 25 20
44 44 43 42 43 43 39 35 33 32 30 30 28 28 30 28 27 24 24 23 23 21 22 19 17 16 15 16 14 12 10 10 9 9 8 8 8 8 13 11 11 35 90 88 92 100 82 61 47
44 42 43 41 47 46 40 38 37 33 32 31 29 32 34 31 32 29 32 30 28 29 30 26 24 21 18 18 17 15 13 13 12 11 10 9 8 8 16 22 24 61 92 91 81 99 94 100 78
35 36 35 40 46 48 38 33 38 38 35 33 32 37 38 30 40 32 42 34 32 32 32 30 26 23 19 20 19 19 16 15 15 13 12 12 10 14 11 34 69 41 61 73 100 94 99 99 100
36 36 36 38 68 38 39 42 45 43 43 40 39 40 43 32 35 39 42 38 34 38 38 35 33 37 25 23 26 23 22 20 16 13 12 12 15 11 11 24 79 87 100 100 100 100 100 91 99
70 80 59 78 72 39 48 50 50 53 58 51 50 54 45 39 36 52 47 44 44 40 45 45 46 48 37 50 49 40 28 27 24 18 12 12 15 17 18 17 98 100 100 100 100 92 100 93 78
72 90 77 93 54 40 48 52 50 51 58 46 50 46 46 39 41 72 58 43 48 46 59 66 71 60 85 81 80 56 46 30 32 25 15 13 18 24 33 26 85 100 100 100 100 94 100 100 88
58 70 97 73 38 40 43 50 50 56 55 55 47 60 66 32 62 98 50 64 59 50 58 63 60 98 100 83 100 78 57 37 33 28 16 16 16 16 23 33 70 100 100 100 100 100 100 100 100
52 52 69 56 41 43 50 54 50 58 61 61 52 63 61 57 73 97 64 75 65 55 58 59 64 86 74 100 100 95 67 40 32 35 20 18 17 18 16 25 41 100 100 100 100 100 100 100 100
37 49 70 77 57 46 46 46 47 46 50 53 52 56 96 64 66 58 83 71 56 59 61 53 53 53 98 100 100 85 90 67 34 40 21 20 18 18 17 22 23 47 84 100 100 100 100 100 100
58 45 46 56 68 67 61 50 48 55 57 83 56 53 95 86 52 58 74 62 50 100 100 84 52 60 60 100 97 95 100 70 42 40 27 24 18 21 20 29 33 36 40 100 100 100 100 100 100
43 47 57 58 60 57 69 83 96 83 79 73 99 100 100 100 100 100 100 89 56 88 76 58 66 77 44 100 100 100 91 52 54 47 35 31 22 22 23 49 82 65 47 59 100 100 100 100 100
67 65 57 50 57 62 60 64 95 96 96 90 79 84 92 100 100 100 100 100 63 40 39 66 90 93 71 100 100 91 73 62 69 51 35 40 23 23 21 46 95 100 86 81 65 69 98 100 100
72 65 60 59 73 62 72 57 52 79 100 100 100 89 74 53 74 94 100 94 73 64 84 48 94 100 100 100 100 90 60 77 64 50 39 40 24 24 23 44 78 84 100 97 94 93 99 100 100
70 64 61 64 71 87 67 60 48 55 83 80 100 100 100 96 64 44 39 74 100 100 80 45 91 100 100 100 86 76 98 100 77 57 43 37 25 24 25 37 62 58 100 97 78 100 100 96 98
59 50 59 66 54 58 75 60 64 70 66 62 80 97 100 100 100 100 100 99 100 100 100 100 100 100 100 86 86 100 100 100 96 49 44 39 26 24 25 37 39 32 100 100 99 96 100 100 100
56 45 48 49 65 51 68 53 57 57 63 70 62 62 70 72 97 87 63 52 50 44 38 64 55 34 76 92 100 100 100 100 94 71 50 40 27 24 24 40 36 44 99 100 100 92 100 100 100
55 55 40 32 46 49 60 50 57 58 65 79 74 62 86 86 54 75 76 61 49 50 49 42 50 52 97 88 100 97 84 100 88 81 63 40 27 25 25 40 34 45 58 100 89 90 100 100 100
41 30 32 37 46 54 71 55 65 79 90 94 100 95 100 100 100 82 64 69 69 76 70 63 50 45 40 47 52 57 99 100 100 70 45 40 26 27 28 42 33 49 36 96 92 96 100 100 100
28 24 28 38 48 55 58 52 81 94 100 100 100 100 100 100 100 100 100 72 65 86 79 79 59 51 46 52 57 98 100 100 91 65 43 34 28 26 28 42 38 31 42 82 99 94 99 100 100
23 23 26 36 48 47 59 56 68 94 100 100 100 100 100 100 100 100 96 100 100 92 84 94 79 68 54 53 62 71 100 98 100 74 51 31 29 28 36 41 58 35 29 100 100 86 96 100 100
24 28 22 25 40 43 58 47 81 100 100 100 100 100 100 100 100 100 100 100 100 100 100 100 99 88 63 71 88 83 77 100 99 68 58 33 29 25 38 44 75 28 47 100 100 76 100 100 100
19 24 25 20 20 29 45 55 96 100 100 100 100 100 100 100 100 100 88 99 100 100 100 99 99 96 82 100 100 95 100 74 98 75 57 31 30 25 46 42 45 34 46 83 100 81 89 100 100
18 20 23 24 18 14 45 57 69 97 100 100 100 100 100 100 100 100 100 100 94 100 100 98 100 100 100 100 99 100 98 75 98 63 48 38 31 25 48 58 46 56 91 87 100 90 94 100 100
21 24 25 22 23 14 35 31 35 98 100 100 100 100 100 100 100 100 100 92 92 100 100 85 98 100 100 100 100 95 82 76 99 61 41 75 54 26 47 50 31 78 97 100 100 96 100 100 100
19 19 21 20 25 22 25 18 36 66 94 100 100 100 100 100 100 100 98 88 100 100 100 100 98 97 100 100 100 96 84 78 95 58 54 73 57 31 47 45 28 74 100 100 100 100 100 100 100
12 15 17 19 21 18 27 33 30 36 57 93 100 100 100 100 100 100 100 85 95 100 100 100 93 94 100 100 100 94 84 74 96 56 47 72 59 33 54 40 26 60 95 100 100 98 100 100 100
11 12 13 17 18 23 30 42 31 45 39 64 77 97 100 100 100 99 95 98 100 100 100 100 90 75 92 100 100 88 77 98 78 58 46 71 44 40 53 47 28 36 83 90 93 95 100 100 100
8 12 11 13 15 23 27 37 42 48 60 47 55 84 85 97 100 100 99 100 100 100 100 100 95 68 85 100 100 94 69 78 86 44 48 66 34 48 54 41 28 27 78 73 82 85 97 100 100
7 8 10 12 15 16 21 30 35 60 99 54 38 48 66 90 94 100 100 100 100 97 95 96 79 88 73 100 98 76 71 90 67 43 48 80 41 61 62 42 30 26 38 92 100 100 100 100 100
Wind_Speed
69 68 68 67 64 63 62 63 61 55 55 53 54 52 47 46 42 42 42 39 42 44 43 45 48 48 50 49 48 48 49 48 50 54 55 57 58 61 59 60 59 54 53 48 47 57 65 72 75
70 70 69 67 65 62 58 58 56 54 50 51 50 49 45 42 42 38 42 40 41 42 44 44 45 48 46 44 43 43 41 42 44 48 52 55 55 55 54 56 56 44 28 26 33 37 42 53 62
74 72 70 67 61 56 55 55 50 50 50 48 47 45 43 40 43 39 41 42 42 43 45 45 45 46 46 43 43 42 42 40 40 43 48 50 51 52 47 48 46 40 22 32 29 30 33 35 48
72 72 70 60 53 51 52 52 47 47 52 49 48 45 44 37 44 43 46 43 44 45 46 47 49 45 43 43 42 39 38 34 35 38 40 43 45 47 45 42 37 49 50 38 19 33 32 42 40
62 61 57 52 49 50 53 53 46 49 50 48 49 48 45 41 43 49 45 42 43 46 48 47 49 50 45 45 45 42 42 41 39 38 36 39 40 43 41 38 39 38 36 35 43 45 41 41 41
47 46 41 46 49 50 51 52 49 47 51 43 47 48 48 44 46 48 49 45 43 45 48 49 49 49 50 49 48 49 45 46 44 41 40 38 34 38 38 40 43 48 41 44 53 56 53 42 45
47 47 41 44 49 52 55 54 48 51 50 44 45 44 50 46 42 50 52 47 45 43 47 49 49 49 43 48 51 52 50 52 47 46 40 40 34 32 38 40 49 57 52 48 53 52 52 54 49
51 46 42 48 53 52 58 61 48 52 53 53 45 50 56 43 42 54 49 50 52 47 44 46 48 42 48 49 51 55 52 53 50 46 44 40 32 32 36 39 50 59 53 53 50 53 52 51 59
52 48 44 50 56 58 63 63 56 52 58 59 52 56 61 50 48 55 52 51 52 46 47 47 45 42 44 51 53 53 58 55 53 53 45 42 35 34 35 40 49 59 54 55 56 58 60 60 64
55 51 50 56 61 64 66 67 63 60 60 63 58 57 65 55 54 53 56 53 49 48 46 49 50 47 45 50 51 55 60 58 58 55 42 46 38 35 35 39 39 53 60 59 58 51 63 60 65
57 55 60 58 59 64 68 70 70 66 65 65 62 57 59 63 53 54 55 52 49 51 48 50 48 50 48 51 55 57 54 63 62 56 44 49 42 37 34 38 37 40 44 61 64 56 58 64 63
63 61 60 63 67 67 65 67 63 67 69 68 65 58 60 61 61 53 53 52 52 49 50 54 50 54 47 49 56 55 62 64 59 64 50 52 41 36 35 39 35 32 35 44 59 53 54 62 65
70 69 67 66 65 71 73 70 69 63 68 72 69 61 55 56 58 53 56 54 57 55 50 50 54 54 44 50 55 61 62 63 61 61 49 55 43 36 35 41 36 32 31 34 42 56 60 59 63
74 74 72 72 69 72 75 77 75 72 73 71 69 68 65 61 57 55 51 59 62 61 60 52 51 54 51 51 55 63 64 60 59 60 55 54 43 37 36 42 38 30 27 31 30 34 40 46 48
81 83 85 80 79 79 80 75 76 79 82 75 70 66 60 62 63 54 58 59 62 66 58 56 50 49 55 56 58 63 61 60 62 64 59 53 43 36 36 40 35 28 29 27 29 26 29 35 38
91 94 90 82 87 84 91 74 80 80 85 81 77 74 67 62 56 53 54 49 54 51 50 46 49 54 58 59 48 54 57 56 62 64 61 52 42 34 37 43 35 31 28 29 30 26 21 29 34
100 103 99 93 95 92 95 85 84 86 84 84 82 81 78 76 69 70 70 67 65 66 63 64 61 57 53 43 46 55 57 62 67 65 60 53 41 34 37 43 35 31 31 35 33 29 20 32 33
109 114 108 102 91 96 98 95 82 84 85 85 84 81 78 77 74 73 73 72 65 63 61 57 56 56 46 50 54 55 62 68 64 62 61 55 40 35 37 44 36 32 34 37 36 34 37 33 35
111 108 97 89 91 95 100 91 85 86 88 86 84 80 77 78 75 74 71 72 68 58 60 56 56 54 53 49 50 48 56 66 61 63 60 49 40 35 37 43 37 33 33 38 40 40 36 41 36
99 94 88 86 89 93 95 87 88 89 90 87 84 80 77 77 76 79 69 62 60 66 60 57 59 56 52 51 48 51 57 57 61 65 53 45 40 34 37 42 38 33 33 36 39 44 44 43 38
86 82 83 89 89 90 92 81 85 86 90 90 87 83 79 77 76 74 62 61 64 64 61 62 62 60 57 56 55 49 55 59 60 62 55 43 38 35 39 42 36 34 36 38 38 45 40 40 39
73 78 81 82 86 90 93 83 81 77 83 90 89 86 86 88 80 73 66 64 61 62 65 63 64 64 62 62 54 52 55 60 60 62 57 47 37 37 41 41 36 37 34 37 38 45 42 41 36
62 76 78 74 77 85 84 90 75 81 82 83 87 90 88 84 79 80 77 75 68 60 65 64 65 65 64 66 55 51 56 55 56 61 56 43 36 38 42 39 35 35 33 37 39 44 43 42 38
71 71 77 79 77 73 74 90 80 88 85 86 89 92 92 84 79 75 75 74 71 70 68 66 65 63 64 67 57 54 61 59 61 58 52 40 36 38 44 39 37 34 31 34 40 42 45 43 39
69 66 70 77 77 65 79 86 70 89 93 89 91 92 90 86 82 84 82 76 70 71 70 68 66 62 64 68 65 63 61 60 61 57 46 38 35 39 46 40 36 34 30 33 40 43 46 40 44
66 68 72 68 68 69 76 73 70 85 97 93 91 96 88 89 89 86 78 75 72 73 72 68 66 65 62 64 66 66 64 59 56 54 43 41 36 41 45 40 34 32 33 36 40 45 48 43 42
64 67 69 68 67 69 63 63 72 73 86 95 100 95 88 87 86 86 83 79 77 76 73 68 62 63 66 69 69 67 61 56 58 54 44 40 40 44 44 38 33 32 37 39 43 44 49 48 42
61 64 65 70 63 66 62 62 59 66 75 81 93 101 96 91 86 85 81 76 79 77 76 71 64 63 67 72 68 63 59 57 58 54 43 39 43 47 45 40 36 32 35 40 41 47 49 49 45
57 59 63 66 65 66 64 60 63 60 67 74 82 88 95 94 90 84 77 76 78 74 74 71 68 66 64 68 66 64 61 57 56 48 40 42 45 50 45 38 33 34 34 42 42 47 54 52 49
56 59 59 60 65 65 64 60 62 55 58 68 78 78 83 85 85 79 76 78 81 78 76 73 71 65 66 68 66 62 56 54 51 40 35 41 46 50 48 41 35 33 34 45 42 45 47 52 48
Wind_Direction
274 275 275 278 280 282 282 281 280 281 279 278 278 278 279 280 284 288 294 297 297 299 301 301 301 300 301 300 295 290 286 281 277 273 269 267 268 267 267 269 267 268 274 274 272 267 261 259 256
273 274 276 277 279 279 277 276 276 275 274 272 274 274 276 280 286 292 294 297 298 302 301 299 300 302 299 304 302 297 288 283 278 275 274 271 266 265 267 266 265 270 260 262 277 275 270 264 258
272 273 275 277 277 273 269 270 271 270 267 269 269 272 276 282 287 287 290 295 295 298 301 299 298 303 301 303 309 304 297 293 285 276 273 273 269 265 262 264 261 243 245 243 238 266 265 257 253
272 272 272 272 271 263 261 263 264 265 264 266 268 271 276 283 287 287 289 293 294 296 299 299 301 297 297 303 306 309 307 300 294 290 284 279 273 269 260 257 229 246 248 235 238 238 249 255 249
270 269 267 267 261 254 256 260 264 266 264 264 266 271 274 278 285 289 285 289 293 291 295 295 299 303 302 304 309 312 313 316 308 301 293 287 283 272 263 249 222 224 214 214 210 226 241 247 247
268 270 268 262 254 252 255 259 268 261 266 265 270 271 276 278 285 286 282 285 290 290 290 291 295 301 309 312 313 315 319 321 320 316 305 291 284 276 264 245 213 212 211 210 217 223 235 234 242
268 269 267 260 254 254 256 260 259 264 267 267 274 279 277 275 288 278 279 289 290 291 287 287 291 300 303 309 311 315 315 322 320 322 312 296 282 280 262 247 221 213 209 206 211 230 236 239 246
269 268 267 262 254 254 257 259 261 264 266 272 274 282 276 280 277 273 282 287 290 292 286 288 288 294 302 305 305 310 310 316 317 321 312 306 294 280 262 243 226 216 213 213 219 231 237 241 248
269 267 266 259 255 253 257 262 263 265 269 270 273 278 281 279 274 273 285 284 287 291 288 284 286 290 295 299 301 303 308 311 316 320 310 307 301 291 264 244 229 225 224 220 228 236 236 239 243
277 272 269 264 259 258 260 263 266 266 267 272 272 275 276 274 274 278 281 281 287 289 285 286 285 288 290 295 297 301 302 306 311 313 315 309 305 298 267 243 233 234 233 232 229 242 243 243 248
280 282 271 267 267 267 265 265 265 267 270 272 272 270 267 273 276 275 272 278 285 285 284 284 289 282 291 294 295 297 300 303 308 312 316 312 303 302 265 243 236 237 240 234 231 240 242 245 249
281 279 274 276 274 269 268 271 272 268 268 267 268 269 262 264 269 274 271 276 281 277 279 284 290 282 288 291 291 293 296 303 306 311 316 312 302 301 263 239 237 243 241 241 236 244 245 244 247
284 278 275 271 272 275 272 270 267 274 269 265 263 263 265 265 262 264 270 276 277 279 282 287 285 285 285 287 287 292 297 300 304 311 312 317 307 303 256 235 237 246 246 241 236 244 246 247 250
279 278 276 275 270 270 273 271 269 274 271 267 267 263 262 260 259 263 264 273 275 278 282 288 283 280 280 278 283 290 296 296 298 310 311 318 307 301 254 234 235 240 242 237 243 246 246 245 254
281 279 279 276 271 270 268 268 269 264 267 267 266 261 261 263 260 262 263 264 269 277 280 284 278 272 276 277 285 288 293 292 295 308 309 315 307 294 250 235 236 239 237 235 241 242 242 239 247
280 278 277 270 268 265 267 266 264 263 264 263 264 262 260 263 262 262 262 264 261 263 273 270 271 274 276 284 293 285 286 289 296 303 307 313 305 287 246 236 235 238 228 231 239 242 244 245 241
282 274 271 268 268 264 262 261 259 259 260 261 262 263 265 266 261 264 265 264 262 270 274 272 274 278 281 279 284 280 284 290 294 299 303 307 304 282 245 235 235 238 229 228 231 222 227 244 241
275 276 273 268 261 261 258 258 253 254 255 255 258 261 262 264 263 263 264 264 266 271 269 269 269 275 273 273 277 282 284 287 292 298 301 304 298 276 246 232 237 240 237 227 235 219 221 232 234
274 273 267 263 257 255 256 256 250 249 249 252 255 256 261 259 262 261 261 264 266 266 266 270 269 272 276 272 280 286 283 286 294 296 301 302 294 270 242 232 236 239 241 227 233 223 219 233 235
270 267 266 260 255 254 254 251 252 248 245 248 251 253 253 259 261 261 259 261 265 261 265 267 268 271 275 279 282 287 283 284 293 295 299 297 292 265 240 229 239 241 236 233 232 230 222 225 225
273 269 262 257 252 252 252 248 249 251 247 246 250 249 249 253 255 255 259 262 258 259 263 264 267 269 274 281 285 285 278 286 290 294 296 297 287 260 234 226 239 242 235 235 235 234 221 220 224
272 270 263 257 252 251 250 247 247 247 249 247 247 248 249 248 250 255 255 254 258 260 259 262 266 270 273 277 279 279 283 281 284 292 293 296 282 253 229 226 236 244 238 231 234 233 221 224 228
270 264 265 261 255 251 248 249 236 244 243 244 246 246 248 247 249 253 254 253 253 255 258 261 265 267 268 271 276 279 282 283 284 289 290 292 272 246 228 229 236 245 242 235 232 231 222 218 214
271 263 260 260 257 254 247 247 233 237 241 240 241 243 244 245 247 250 251 253 255 254 254 257 261 265 268 267 267 275 276 286 284 286 290 285 264 240 222 230 238 247 245 232 231 228 219 219 212
272 267 264 259 258 255 247 245 238 237 237 239 241 241 243 244 244 246 248 249 252 253 254 256 259 260 264 263 270 274 277 280 279 285 288 277 259 235 221 229 235 246 239 232 233 227 215 215 217
270 265 261 262 258 255 250 249 241 237 237 238 240 241 237 241 244 245 248 251 254 255 256 255 254 255 260 261 265 272 276 276 272 281 282 276 253 229 223 229 233 241 230 226 232 221 217 218 214
266 262 260 258 254 255 254 251 244 241 240 238 240 241 237 238 241 246 249 251 251 251 253 251 251 255 258 260 263 269 271 272 267 278 276 268 249 223 222 228 231 239 227 222 225 227 224 215 213
260 257 254 253 252 251 249 248 248 243 241 241 240 240 240 240 242 246 248 247 250 250 248 249 252 256 258 259 262 266 270 263 267 274 271 257 238 222 221 229 234 238 234 224 229 228 224 220 225
258 252 251 249 249 244 244 243 244 241 241 239 240 241 240 241 243 246 245 243 245 245 246 247 255 258 257 259 262 263 267 261 263 270 261 247 228 221 223 228 232 233 239 225 234 231 227 227 233
253 250 249 245 244 243 243 240 245 241 244 241 241 239 239 240 241 240 237 241 245 247 249 252 254 255 259 259 260 264 260 257 262 266 256 239 222 220 224 227 234 237 244 229 226 225 224 227 229